Location: Casteau
(50.5142°N, 4.0161°E)
Time: 08:22:05
(UTC+00:00)

NOSS 2-2 (E) - Pass Details

Date: 18 September 2020
Orbit: 468 x 1739 km, 63.3° (Epoch: 22 October)

Event Time Altitude Azimuth Distance (km) Brightness Sun altitude
Rises 19:12:00 0° 213° (SSW) 2,495 6.9 -13.6°
Reaches altitude 10° 19:14:01 10° 211° (SSW) 1,632 5.9 -13.9°
Maximum altitude 19:17:29 64° 129° (SE) 560 3.1 -14.4°
Drops below altitude 10° 19:21:31 10° 48° (NE) 1,889 5.8 -15.0°
Sets 19:24:01 0° 45° (NE) 2,941 6.8 -15.3°
